Location: Unspecified
(0.0000°N, 0.0000°E)
Time: 22:26:25
(UTC+01:00)

Cosmos 2219 - Visible Passes

Search period start: 24 November 2014 00:00
Search period end: 04 December 2014 00:00
Orbit: 834 x 860 km, 71.1° (Epoch: 23 November)

Date Brightness Start Highest point End Pass type
(mag) Time Alt. Az. Time Alt. Az. Time Alt. Az.
24 Nov 3.9 19:28:18 10° SSE 19:33:18 33° ESE 19:37:37 13° NE visible
24 Nov 5.6 21:13:48 10° WSW 21:17:09 16° WNW 21:19:37 12° NW visible
25 Nov 3.9 19:14:59 10° SSE 19:19:56 32° ESE 19:24:52 10° NE visible
25 Nov 5.6 21:00:21 10° WSW 21:03:48 17° WNW 21:07:15 10° NW visible
26 Nov 5.6 20:46:53 10° WSW 20:50:27 17° WNW 20:54:00 10° NW visible
27 Nov 5.6 20:33:27 10° WSW 20:37:05 18° WNW 20:40:44 10° NNW visible
28 Nov 5.6 20:20:00 10° WSW 20:23:44 18° WNW 20:27:29 10° NNW visible
29 Nov 5.6 20:06:33 10° WSW 20:10:23 19° WNW 20:14:13 10° NNW visible
30 Nov 5.7 19:53:07 10° WSW 19:57:02 20° WNW 20:00:57 10° NNW visible
01 Dec 5.7 19:39:41 10° WSW 19:43:41 20° WNW 19:47:41 10° NNW visible
02 Dec 5.7 19:26:16 10° WSW 19:30:20 21° WNW 19:34:25 10° NNW visible
03 Dec 5.7 19:12:50 10° WSW 19:16:59 21° WNW 19:21:08 10° NNW visible
